CLW91D VECC-OKKK

Flight info

Callsign CLW91D
Flight time N/A
Altitude 32000
Route JJS2F JJS A791 BPL/N0481F340 A791 PRA A325 KE B210 NH P757 PG/N0473F360 G665 SYZ A788 KHG G669 SESRU
Aircraft B738/M-SDE2E3FGHIRWXY/LB1

Departure

Time 2026-05-05 08:57
Airport Netaji Subhash Chandra Bose International Airport (VECC)

Arrival

Time N/A
Airport Kuwait International Airport (OKKK)
Time Latitude Longitude Altitude Speed Heading
2026-05-05 08:39 22.64297 88.44064 28 ft 0 kts 275°
2026-05-05 08:50 22.64297 88.44072 28 ft 2 kts 274°
2026-05-05 08:50 22.64296 88.44089 28 ft 2 kts 275°
2026-05-05 08:50 22.64294 88.44107 28 ft 2 kts 275°
2026-05-05 08:50 22.64293 88.44125 28 ft 2 kts 275°
2026-05-05 08:51 22.64295 88.44142 28 ft 2 kts 238°
2026-05-05 08:51 22.64306 88.44155 28 ft 2 kts 206°
2026-05-05 08:51 22.64316 88.44159 28 ft 1 kts 189°
2026-05-05 08:53 22.64315 88.44159 28 ft 1 kts 188°
2026-05-05 08:53 22.64291 88.44156 28 ft 6 kts 186°
2026-05-05 08:53 22.64250 88.44151 28 ft 6 kts 186°
2026-05-05 08:53 22.64205 88.44145 27 ft 7 kts 187°
2026-05-05 08:54 22.64143 88.44137 27 ft 10 kts 187°
2026-05-05 08:54 22.64077 88.44128 28 ft 10 kts 187°
2026-05-05 08:54 22.64006 88.44128 27 ft 10 kts 167°
2026-05-05 08:54 22.63942 88.44161 27 ft 11 kts 152°
2026-05-05 08:55 22.63872 88.44201 28 ft 11 kts 151°
2026-05-05 08:55 22.63800 88.44244 28 ft 12 kts 152°
2026-05-05 08:55 22.63746 88.44305 28 ft 12 kts 95°
2026-05-05 08:55 22.63775 88.44376 28 ft 12 kts 15°
2026-05-05 08:56 22.63797 88.44379 28 ft 0 kts
2026-05-05 08:56 22.63815 88.44381 28 ft 10 kts
2026-05-05 08:56 22.63975 88.44400 28 ft 41 kts
2026-05-05 08:56 22.64450 88.44456 27 ft 97 kts
2026-05-05 08:57 22.65297 88.44554 27 ft 145 kts
2026-05-05 08:57 22.66402 88.44695 223 ft 165 kts
2026-05-05 08:57 22.67567 88.44840 745 ft 173 kts
2026-05-05 08:57 22.68772 88.45020 1331 ft 176 kts
2026-05-05 08:58 22.69990 88.45193 1843 ft 187 kts
2026-05-05 08:58 22.71301 88.45343 2477 ft 190 kts
2026-05-05 08:58 22.72626 88.45494 3164 ft 193 kts
2026-05-05 08:58 22.73969 88.45655 3838 ft 195 kts
2026-05-05 08:59 22.75319 88.45685 4499 ft 197 kts 342°
2026-05-05 08:59 22.76405 88.44831 5127 ft 197 kts 310°
2026-05-05 08:59 22.77352 88.43649 5368 ft 218 kts 311°
2026-05-05 08:59 22.78405 88.42365 5546 ft 238 kts 311°
2026-05-05 09:00 22.79554 88.40986 5798 ft 252 kts 312°
2026-05-05 09:00 22.80752 88.39566 6295 ft 257 kts 312°
2026-05-05 09:00 22.81971 88.38132 6891 ft 260 kts 313°
2026-05-05 09:00 22.83198 88.36692 7590 ft 260 kts 312°
2026-05-05 09:01 22.84427 88.35246 8287 ft 262 kts 310°
2026-05-05 09:01 22.85290 88.33514 8904 ft 265 kts 284°
2026-05-05 09:01 22.85637 88.31527 9324 ft 279 kts 278°
2026-05-05 09:01 22.85900 88.29417 9848 ft 286 kts 277°
2026-05-05 09:02 22.86153 88.27277 9816 ft 285 kts 277°
2026-05-05 09:02 22.86406 88.25154 9852 ft 284 kts 277°
2026-05-05 09:02 22.86665 88.23022 9861 ft 286 kts 277°
2026-05-05 09:02 22.86930 88.20886 9861 ft 286 kts 278°
2026-05-05 09:03 22.87198 88.18749 9862 ft 286 kts 278°
2026-05-05 09:03 22.87468 88.16613 9862 ft 286 kts 278°
2026-05-05 09:03 22.87740 88.14474 9857 ft 286 kts 278°
2026-05-05 09:03 22.88012 88.12335 9858 ft 286 kts 278°
2026-05-05 09:04 22.88284 88.10199 9857 ft 286 kts 278°
2026-05-05 09:04 22.88557 88.08062 9853 ft 286 kts 278°
2026-05-05 09:04 22.88829 88.05925 9853 ft 285 kts 278°
2026-05-05 09:04 22.89100 88.03798 9854 ft 284 kts 278°
2026-05-05 09:05 22.89370 88.01676 9855 ft 284 kts 278°
2026-05-05 09:05 22.89548 88.00273 9860 ft 283 kts 278°
2026-05-05 09:05 22.89904 87.97468 9860 ft 283 kts 278°
2026-05-05 09:05 22.90168 87.95354 9863 ft 283 kts 276°
2026-05-05 09:06 22.90342 87.93216 10167 ft 286 kts 274°
2026-05-05 09:06 22.90469 87.91056 10828 ft 287 kts 273°
2026-05-05 09:06 22.90549 87.89599 11307 ft 287 kts 273°
2026-05-05 09:06 22.90669 87.87439 11986 ft 288 kts 273°
2026-05-05 09:07 22.90791 87.85261 12620 ft 291 kts 274°
2026-05-05 09:07 22.90916 87.83090 13250 ft 294 kts 274°
2026-05-05 09:07 22.91046 87.80864 13867 ft 296 kts 274°
2026-05-05 09:07 22.91177 87.78624 14458 ft 298 kts 273°
2026-05-05 09:08 22.91308 87.76375 15099 ft 299 kts 273°
2026-05-05 09:08 22.91443 87.74112 15698 ft 301 kts 273°
2026-05-05 09:08 22.91580 87.71836 16283 ft 304 kts 273°
2026-05-05 09:08 22.91715 87.69542 16881 ft 306 kts 272°
2026-05-05 09:09 22.91852 87.67235 17495 ft 307 kts 272°
2026-05-05 09:09 22.91989 87.64913 17837 ft 309 kts 272°
2026-05-05 09:09 22.92124 87.62621 17838 ft 308 kts 272°
2026-05-05 09:09 22.92262 87.60301 17853 ft 310 kts 272°
2026-05-05 09:10 22.92400 87.57965 17855 ft 310 kts 272°
2026-05-05 09:10 22.92537 87.55632 17859 ft 310 kts 272°
2026-05-05 09:10 22.92674 87.53300 17860 ft 309 kts 272°
2026-05-05 09:10 22.92809 87.50974 17857 ft 309 kts 272°
2026-05-05 09:11 22.92944 87.48649 17867 ft 309 kts 272°
2026-05-05 09:11 22.93080 87.46325 17861 ft 308 kts 272°
2026-05-05 09:11 22.93214 87.44004 17862 ft 308 kts 272°
2026-05-05 09:11 22.93350 87.41648 17888 ft 321 kts 272°
2026-05-05 09:12 22.93493 87.39154 17881 ft 341 kts 272°
2026-05-05 09:12 22.93645 87.36511 17881 ft 360 kts 272°
2026-05-05 09:12 22.93804 87.33737 17880 ft 377 kts 272°
2026-05-05 09:12 22.93970 87.30832 17875 ft 391 kts 272°
2026-05-05 09:13 22.94138 87.27897 17865 ft 395 kts 272°
2026-05-05 09:13 22.94324 87.24930 17867 ft 395 kts 273°
2026-05-05 09:13 22.94538 87.21938 18170 ft 399 kts 273°
2026-05-05 09:13 22.94762 87.18942 18672 ft 397 kts 273°
2026-05-05 09:14 22.94987 87.15957 19150 ft 397 kts 273°
2026-05-05 09:14 22.95209 87.12969 19533 ft 399 kts 273°
2026-05-05 09:14 22.95430 87.09960 19895 ft 401 kts 272°
2026-05-05 09:14 22.95650 87.06932 20274 ft 403 kts 272°
2026-05-05 09:15 22.95869 87.03890 20664 ft 404 kts 272°
2026-05-05 09:15 22.96085 87.00878 21040 ft 406 kts 272°
2026-05-05 09:15 22.96303 86.97818 21396 ft 408 kts 272°
2026-05-05 09:15 22.96522 86.94741 21747 ft 410 kts 272°
2026-05-05 09:16 22.96742 86.91651 22106 ft 411 kts 272°
2026-05-05 09:16 22.96962 86.88552 22443 ft 413 kts 272°
2026-05-05 09:16 22.97182 86.85437 22772 ft 415 kts 272°
2026-05-05 09:16 22.97402 86.82311 23100 ft 417 kts 271°
2026-05-05 09:17 22.97623 86.79166 23424 ft 418 kts 271°
2026-05-05 09:17 22.97844 86.76013 23690 ft 420 kts 271°
2026-05-05 09:17 22.98027 86.73401 23913 ft 420 kts 271°
2026-05-05 09:17 22.98247 86.70236 24193 ft 421 kts 271°
2026-05-05 09:18 22.98468 86.67061 24453 ft 422 kts 271°
2026-05-05 09:18 22.98689 86.63877 24714 ft 423 kts 271°
2026-05-05 09:18 22.98910 86.60689 24961 ft 424 kts 271°
2026-05-05 09:18 22.99130 86.57496 25215 ft 425 kts 271°
2026-05-05 09:19 22.99349 86.54295 25455 ft 425 kts 270°
2026-05-05 09:19 22.99200 86.51113 25649 ft 423 kts 257°
2026-05-05 09:19 22.98352 86.48115 25872 ft 421 kts 245°
2026-05-05 09:19 22.96937 86.45336 26127 ft 421 kts 239°
2026-05-05 09:20 22.95402 86.42620 26335 ft 422 kts 238°
2026-05-05 09:20 22.93852 86.39914 26562 ft 423 kts 239°
2026-05-05 09:20 22.92310 86.37198 26853 ft 421 kts 239°
2026-05-05 09:20 22.90791 86.34490 27190 ft 419 kts 239°
2026-05-05 09:21 22.89289 86.31789 27524 ft 417 kts 239°
2026-05-05 09:21 22.87796 86.29092 27810 ft 417 kts 239°
2026-05-05 09:21 22.86305 86.26395 28100 ft 416 kts 239°
2026-05-05 09:21 22.84819 86.23709 28430 ft 414 kts 240°
2026-05-05 09:22 22.83340 86.21041 28773 ft 412 kts 240°
2026-05-05 09:22 22.82138 86.18225 29039 ft 412 kts 252°
2026-05-05 09:22 22.81572 86.15182 29320 ft 414 kts 264°
2026-05-05 09:22 22.81622 86.12098 29623 ft 415 kts 271°
2026-05-05 09:23 22.81876 86.08976 29937 ft 415 kts 272°
2026-05-05 09:23 22.82168 86.05866 30184 ft 414 kts 272°
2026-05-05 09:23 22.82464 86.02762 30438 ft 414 kts 272°
2026-05-05 09:23 22.82750 85.99658 30684 ft 413 kts 272°
2026-05-05 09:24 22.83024 85.96559 30935 ft 413 kts 272°
2026-05-05 09:24 22.83289 85.93462 31198 ft 412 kts 272°
2026-05-05 09:24 22.83547 85.90363 31461 ft 411 kts 272°
2026-05-05 09:24 22.83800 85.87271 31735 ft 410 kts 272°
2026-05-05 09:25 22.84048 85.84229 31888 ft 411 kts 272°
2026-05-05 09:25 22.84548 85.78021 31905 ft 413 kts 272°
2026-05-05 09:26 22.85045 85.71853 31911 ft 409 kts 272°
2026-05-05 09:26 22.85537 85.65729 31916 ft 406 kts 272°
2026-05-05 09:27 22.86022 85.59649 31925 ft 404 kts 272°
2026-05-05 09:27 22.86502 85.53603 31928 ft 406 kts 272°
2026-05-05 09:28 22.86986 85.47459 31939 ft 412 kts 272°
2026-05-05 09:28 22.87476 85.41234 31939 ft 415 kts 272°
2026-05-05 09:29 22.87966 85.34976 31935 ft 417 kts 272°
2026-05-05 09:29 22.88453 85.28729 31931 ft 418 kts 272°
2026-05-05 09:30 22.88940 85.22441 31932 ft 418 kts 272°
2026-05-05 09:30 22.89424 85.16163 31927 ft 417 kts 272°
2026-05-05 09:31 22.89907 85.09904 31926 ft 416 kts 272°
2026-05-05 09:31 22.90391 85.03665 31927 ft 414 kts 272°
2026-05-05 09:32 22.90870 84.97451 31926 ft 412 kts 272°
2026-05-05 09:32 22.91345 84.91262 31925 ft 411 kts 272°
2026-05-05 09:33 22.91812 84.85131 31923 ft 410 kts 272°
2026-05-05 09:33 22.92280 84.78964 31930 ft 410 kts 272°
2026-05-05 09:34 22.92746 84.72795 31925 ft 410 kts 272°
2026-05-05 09:34 22.93209 84.66621 31931 ft 410 kts 272°
2026-05-05 09:35 22.93670 84.60445 31927 ft 411 kts 272°
2026-05-05 09:35 22.94359 84.51165 31930 ft 411 kts 272°
2026-05-05 09:36 22.94814 84.44984 31933 ft 411 kts 272°
2026-05-05 09:36 22.95265 84.38838 31933 ft 411 kts 272°
2026-05-05 09:37 22.95678 84.33170 31930 ft 411 kts 272°
2026-05-05 09:37 22.96127 84.26981 31935 ft 411 kts 272°
2026-05-05 09:38 22.96575 84.20786 31934 ft 411 kts 272°
2026-05-05 09:38 22.97017 84.14625 31935 ft 411 kts 272°
2026-05-05 09:39 22.97416 84.08434 31936 ft 411 kts 271°
2026-05-05 09:39 22.97743 84.02236 31937 ft 410 kts 271°
2026-05-05 09:40 22.98064 83.96052 31940 ft 410 kts 271°
2026-05-05 09:40 22.98389 83.89901 31938 ft 411 kts 271°
2026-05-05 09:41 22.98718 83.83713 31936 ft 411 kts 271°
2026-05-05 09:41 22.99046 83.77511 31935 ft 411 kts 271°
2026-05-05 09:42 22.99372 83.71304 31936 ft 411 kts 271°
2026-05-05 09:42 22.99696 83.65098 31937 ft 412 kts 271°
2026-05-05 09:43 23.00018 83.58880 31933 ft 413 kts 270°
2026-05-05 09:43 23.00335 83.52699 31935 ft 413 kts 270°
2026-05-05 09:44 23.00653 83.46465 31930 ft 413 kts 270°
2026-05-05 09:44 23.00969 83.40229 31924 ft 413 kts 270°
2026-05-05 09:45 23.01281 83.33999 31919 ft 413 kts 270°
2026-05-05 09:45 23.01592 83.27768 31912 ft 413 kts 270°
2026-05-05 09:46 23.01900 83.21531 31906 ft 413 kts 270°
2026-05-05 09:46 23.02205 83.15309 31899 ft 412 kts 270°
2026-05-05 09:47 23.02507 83.09098 31898 ft 412 kts 270°
2026-05-05 09:47 23.02807 83.02891 31887 ft 411 kts 270°
2026-05-05 09:48 23.03101 82.96735 31878 ft 411 kts 271°
2026-05-05 09:48 23.03395 82.90533 31878 ft 411 kts 271°
2026-05-05 09:49 23.03638 82.85387 31878 ft 411 kts 271°